Location: Gerlach
(40.6516°N, 119.3568°W)
Time: 04:39:58
(UTC-07:00)

SO-50 - Pass Details

Date: 28 February 2024
Orbit: 611 x 655 km, 64.6° (Epoch: 23 April)

Event Time Altitude Azimuth Distance (km) Brightness Sun altitude
Exits shadow 04:14:26 59° 38° (NE) 742 ? -27.0°
Drops below altitude 10° 04:18:10 10° 33° (NNE) 2,024 ? -26.3°
Sets 04:20:26 0° 34° (NNE) 2,928 ? -25.9°
